Temperature
30 30 30 30 31 31 31 31 31 32 34 33 32 32 33 33 32 32 31 31 30 29 28 26 25 24 23 22 22 22 21 21 20 20 20 20 20 20 20 20 19 19 18 17
30 29 30 31 31 31 31 30 31 32 32 32 31 31 32 33 32 31 29 28 27 26 25 23 22 21 21 21 21 21 21 21 21 21 21 21 21 20 20 20 19 19 18 17
29 29 31 31 30 30 30 30 30 30 31 31 31 30 31 32 29 27 25 24 22 20 19 18 18 18 18 18 19 20 20 20 20 20 20 20 20 20 20 20 19 19 18 17
30 31 31 30 30 30 29 30 30 30 29 29 30 29 30 30 27 24 20 18 17 16 16 16 16 16 17 18 19 20 20 20 20 20 20 20 20 20 20 20 19 19 18 18
29 30 30 29 30 30 30 30 30 30 29 28 29 28 29 29 25 22 20 18 16 16 16 15 15 15 16 17 18 19 19 19 19 19 19 19 19 19 20 20 19 19 18 18
30 31 31 30 31 31 31 30 30 29 26 24 23 24 27 27 24 22 20 18 17 16 16 15 15 15 15 16 17 18 18 18 18 18 18 18 18 18 18 19 19 18 18 18
27 30 31 31 30 30 30 29 27 26 22 21 21 23 24 23 23 21 20 18 17 16 16 15 15 14 15 15 15 15 16 16 16 16 16 16 16 16 17 17 18 18 17 17
25 26 30 31 30 29 29 29 27 26 26 26 24 24 21 22 22 21 20 19 18 17 16 16 15 15 14 14 14 14 14 14 15 15 15 15 15 15 15 16 16 17 17 17
27 28 30 31 31 30 29 28 29 27 27 27 27 22 20 20 20 20 20 19 18 17 17 16 16 15 14 14 14 14 14 14 14 14 15 14 14 14 14 15 15 15 16 16
29 28 30 31 31 31 30 29 28 27 26 25 27 23 21 19 19 20 19 18 17 17 17 16 16 15 15 14 14 13 13 13 13 13 14 14 14 14 14 14 14 14 15 15
30 28 29 30 29 28 29 28 28 27 26 25 25 23 21 20 20 19 19 18 17 16 16 15 15 15 14 14 14 13 13 12 12 12 12 12 13 13 14 14 14 14 14 14
29 28 27 28 29 29 28 28 27 26 25 25 25 21 20 19 19 18 18 17 16 15 15 15 15 14 13 13 13 12 12 12 11 11 11 11 11 11 11 12 12 13 13 13
27 26 25 27 27 28 28 28 28 27 25 25 23 20 19 19 19 18 17 16 16 15 15 15 14 14 13 12 12 12 12 11 11 11 11 11 10 10 10 10 10 11 11 12
26 26 25 25 26 28 28 27 27 26 24 23 23 21 21 19 19 18 17 16 16 15 15 15 14 14 13 13 12 12 12 11 11 11 10 10 10 10 10 10 9 10 10 10
27 26 26 27 28 28 27 26 25 24 23 22 22 22 22 19 18 17 17 16 16 16 16 15 14 14 13 13 12 12 12 12 11 11 11 10 10 10 10 9 9 9 9 9
27 26 26 26 27 27 25 24 23 23 22 22 21 21 21 19 18 17 17 16 16 16 15 14 13 13 13 12 12 12 11 11 11 11 11 10 10 10 10 10 9 9 9 9
26 24 24 25 27 26 23 21 21 21 21 21 20 20 20 18 17 17 16 16 16 14 14 13 13 12 12 11 11 11 11 11 10 10 10 10 10 10 10 10 10 10 9 9
25 24 24 25 26 24 21 22 21 20 21 21 19 18 18 17 17 16 16 16 14 13 13 12 12 12 11 11 11 11 10 10 10 9 9 9 9 9 9 10 10 10 9 9
26 24 24 25 24 24 22 21 21 19 20 19 18 18 17 16 16 16 15 14 13 13 12 12 12 11 11 11 10 10 10 9 9 9 9 8 8 9 9 9 9 9 9 9
26 26 25 24 23 22 20 21 20 20 20 18 17 17 16 15 15 15 14 13 13 12 12 12 11 11 11 11 10 10 9 9 8 8 8 8 8 8 8 8 8 8 9 9
24 25 24 23 22 22 20 21 20 18 18 17 16 16 15 15 14 14 13 13 12 12 12 12 11 11 11 10 10 9 9 8 8 7 7 7 7 7 7 7 8 8 8 8
24 23 22 22 21 21 21 20 18 17 17 16 15 15 14 14 13 13 13 13 12 12 12 11 11 11 10 10 10 9 8 7 7 6 6 6 6 6 6 7 7 7 7 7
23 21 21 21 21 21 19 19 18 17 16 15 15 14 14 13 13 13 13 12 12 12 11 11 11 10 10 9 8 7 7 6 5 5 5 5 5 5 6 6 6 6 7 7
23 22 22 21 21 20 18 18 17 16 15 15 14 14 13 13 13 13 12 12 12 11 11 10 9 8 8 7 6 5 5 4 4 4 4 4 4 5 5 6 6 6 6 7
22 23 21 21 20 18 18 16 16 15 15 14 14 13 13 13 12 12 12 11 11 10 9 8 7 6 5 4 4 4 4 3 3 4 4 4 4 5 5 5 6 6 6 6
23 21 19 19 18 17 16 16 15 15 14 14 13 13 12 12 12 11 11 10 9 8 7 5 5 4 3 3 3 3 3 3 3 3 4 4 4 5 5 5 5 6 6 6
Wind_Speed
10 10 8 7 8 11 12 13 15 13 9 5 7 14 16 8 6 8 8 7 7 10 11 7 6 5 7 8 10 9 8 8 5 4 3 3 3 1 1 3 6 4 1 2
5 7 7 6 6 9 11 11 12 11 11 9 10 14 17 13 9 5 5 5 5 6 3 4 4 6 8 7 7 8 8 7 5 5 3 2 2 1 1 1 4 4 3 2
4 5 6 8 9 11 11 11 13 11 10 12 15 17 16 11 3 7 11 13 14 15 17 19 16 15 14 9 4 4 6 6 3 6 4 3 3 3 4 4 4 5 4 3
7 4 5 8 10 10 10 9 11 13 13 13 14 13 8 2 8 17 21 22 20 20 22 20 17 14 10 7 7 6 5 3 1 1 3 3 3 3 2 2 3 5 4 4
7 7 7 8 8 9 10 13 14 15 15 16 15 12 1 9 13 16 18 18 16 16 19 17 12 8 9 9 10 11 10 8 6 5 7 6 6 5 3 2 2 4 5 6
14 7 5 5 8 9 10 13 16 13 8 10 13 14 0 7 10 15 16 17 17 18 18 15 12 10 11 13 14 15 14 14 12 10 9 8 8 8 8 7 5 3 4 6
13 7 4 2 8 9 12 12 10 8 1 5 12 11 3 13 16 16 16 16 16 16 15 14 13 13 13 14 14 14 15 15 15 16 15 13 10 8 8 8 8 7 5 4
5 8 6 4 6 9 10 10 10 14 13 7 11 3 8 14 14 14 14 14 14 14 13 13 13 11 11 12 12 13 13 12 12 13 13 13 14 11 9 10 9 7 4 3
6 8 10 8 5 5 7 11 15 14 16 14 2 8 7 8 8 9 11 12 12 11 11 10 9 9 9 9 9 9 9 9 9 10 10 8 9 10 11 11 10 9 9 8
9 13 13 11 10 6 4 10 9 9 10 14 12 3 4 7 5 4 8 10 10 11 11 11 9 9 8 7 6 6 6 7 8 9 9 9 9 8 8 9 9 9 9 10
14 12 13 11 8 10 8 9 9 8 10 12 15 5 7 6 6 6 7 8 10 12 12 12 11 11 10 10 8 8 7 7 7 8 8 9 9 10 9 8 8 8 8 9
12 11 12 13 9 9 7 8 7 7 10 11 15 4 6 6 5 5 8 10 11 13 14 14 14 13 12 12 10 9 8 8 7 7 8 9 9 10 10 10 9 9 9 9
9 7 10 7 2 4 8 8 7 8 9 12 13 2 1 1 3 6 9 12 14 15 17 17 15 13 12 12 11 11 10 10 10 9 9 9 10 10 10 11 10 10 10 10
2 7 10 14 15 15 12 9 8 10 10 13 15 8 4 4 7 11 13 15 16 17 18 17 13 11 11 10 11 12 12 12 12 11 11 11 11 11 11 11 11 11 11 11
5 10 14 16 17 14 8 8 10 9 9 11 16 18 13 4 9 13 16 17 20 22 20 15 12 11 11 11 10 10 11 11 11 12 12 12 12 12 12 11 11 11 12 13
9 10 14 17 15 5 5 9 9 9 10 13 17 18 10 9 12 15 18 21 24 21 17 18 17 16 14 13 13 12 11 11 10 11 12 12 12 12 12 12 12 12 12 12
10 12 13 13 13 8 3 8 9 10 12 15 20 20 17 16 17 20 22 25 21 19 22 22 20 16 13 14 13 12 11 11 11 11 12 12 13 13 13 15 13 12 12 12
7 10 7 10 12 7 6 5 8 11 14 18 15 17 19 20 20 19 21 20 21 24 24 22 20 19 17 17 16 13 14 13 13 13 13 13 13 14 13 13 13 12 11 11
4 5 7 8 12 5 6 7 11 15 19 11 15 20 23 24 25 22 19 22 23 24 22 20 21 22 18 18 16 15 15 15 16 16 14 14 14 14 13 12 12 10 10 9
9 7 6 9 12 9 6 11 16 17 13 15 22 24 25 26 24 21 23 25 24 23 21 20 21 21 17 15 14 15 18 17 17 17 15 15 14 15 15 13 12 11 9 9
11 10 8 10 13 4 9 16 18 13 14 22 23 24 25 23 22 24 27 25 24 22 21 20 19 18 15 14 14 14 15 16 16 16 17 17 16 16 16 14 12 10 11 11
7 8 8 9 9 6 14 14 13 14 17 21 23 24 24 25 26 26 26 24 23 24 23 23 18 17 14 13 13 14 14 15 15 16 18 18 16 17 17 13 11 10 10 10
4 5 5 6 8 10 13 13 15 17 20 21 23 25 25 26 28 28 26 24 24 23 22 21 21 18 14 12 13 16 14 15 17 18 18 18 18 16 14 14 13 11 9 9
5 2 6 7 10 14 14 16 18 19 20 22 24 25 26 27 29 29 26 24 24 23 22 22 22 21 19 17 17 16 17 17 17 18 17 16 16 15 14 12 12 11 10 9
2 5 8 11 12 14 14 18 19 20 22 23 24 25 25 27 28 27 25 24 24 23 21 22 22 22 23 21 20 20 19 17 17 17 16 15 15 14 12 12 11 11 10 9
3 5 6 8 12 14 17 19 20 21 22 24 25 25 26 25 26 27 25 24 24 25 25 24 24 25 25 24 23 21 18 16 16 15 14 12 11 10 10 10 10 12 13 11
Wind_Direction
254 253 288 340 340 330 313 313 313 311 311 289 278 287 294 294 279 274 273 267 234 216 213 193 168 143 112 107 122 133 151 140 155 152 157 161 153 167 155 139 124 124 154 75
279 308 326 328 305 293 295 300 300 306 319 309 285 278 279 276 257 260 295 300 284 254 280 358 40 56 69 82 107 120 130 143 167 128 112 113 97 242 235 114 140 167 184 174
300 241 273 295 303 306 309 321 322 317 302 285 276 269 263 266 345 47 31 19 22 35 32 20 17 37 40 22 52 120 121 137 161 136 172 179 163 225 231 195 187 177 173 183
308 300 309 303 303 307 307 324 315 304 292 282 281 282 276 189 69 56 51 50 45 48 48 43 26 20 32 15 355 40 64 108 109 161 269 264 235 236 245 213 195 158 170 198
302 299 297 294 306 309 307 312 298 288 285 283 285 277 56 74 72 63 56 57 58 61 68 65 50 30 31 32 26 27 25 28 18 350 322 311 294 288 285 266 172 165 201 207
296 281 281 309 307 301 301 293 285 280 292 305 322 309 195 71 73 75 65 62 61 61 65 69 63 46 36 35 32 29 26 24 14 1 340 318 306 309 312 310 298 249 226 209
313 296 277 288 325 340 327 310 306 310 288 223 229 259 84 69 64 68 66 62 62 63 63 61 55 47 39 34 31 29 28 25 20 18 9 0 349 330 307 291 277 256 249 233
310 300 296 322 338 327 316 309 310 317 318 299 218 226 80 72 69 67 66 61 57 56 57 56 52 49 42 36 28 25 24 21 17 16 11 15 13 2 349 339 325 309 294 291
306 309 312 313 303 295 315 331 328 317 307 307 310 116 114 83 60 50 52 48 41 39 41 42 42 40 35 32 27 18 14 7 4 3 356 1 6 0 355 351 350 343 337 322
317 314 312 308 292 249 282 315 310 316 315 314 319 118 147 135 120 67 40 28 18 10 10 10 8 8 4 360 7 6 0 350 344 344 343 342 342 339 338 339 347 349 344 337
322 310 304 308 321 322 324 323 332 323 318 322 317 13 68 87 49 30 21 6 356 349 346 341 338 339 335 335 343 347 344 337 332 332 332 327 323 323 321 317 323 333 332 332
335 326 316 309 320 332 311 306 314 317 321 315 308 22 53 56 37 2 342 340 336 329 325 323 321 321 320 324 328 329 328 321 315 314 313 311 313 314 312 309 315 317 315 314
342 325 312 314 348 298 299 308 338 336 319 314 318 10 137 326 325 333 335 333 327 323 320 315 310 305 300 295 291 288 284 280 276 273 271 274 279 284 287 291 296 300 301 301
296 289 292 303 311 319 318 335 7 351 332 323 329 339 285 270 326 337 331 323 319 316 312 307 305 300 294 284 274 271 270 267 266 264 262 261 263 266 269 272 275 279 281 284
324 311 323 317 315 321 354 20 15 3 349 326 328 325 335 4 337 326 321 322 322 318 318 326 328 323 316 310 298 290 283 275 268 263 261 260 259 258 258 261 264 266 269 274
335 322 318 310 315 324 64 37 17 1 351 332 320 316 344 340 328 323 325 325 318 317 330 333 327 322 319 315 310 305 298 292 283 274 271 267 262 261 259 259 259 260 263 265
351 344 322 308 308 290 72 36 14 353 340 331 318 321 336 335 327 323 325 317 319 334 330 324 320 316 311 306 301 297 300 302 299 292 286 280 272 267 263 264 261 255 255 257
6 340 310 305 323 338 81 51 4 337 325 333 346 357 345 331 327 325 317 324 335 327 321 317 314 311 305 302 302 300 303 302 299 295 293 291 285 278 271 264 259 255 255 257
26 340 319 339 337 354 116 38 360 331 314 18 354 339 334 331 321 314 326 331 321 315 314 311 307 304 302 300 299 298 298 299 296 294 293 293 291 289 285 277 268 262 259 257
359 317 314 344 331 341 50 10 348 323 299 9 346 335 331 326 319 320 325 319 315 314 309 305 304 302 298 295 295 294 295 295 294 295 296 293 287 283 281 278 277 274 266 261
345 337 351 342 324 45 18 355 347 332 327 334 330 328 325 322 314 313 316 316 313 310 307 305 303 300 297 292 288 285 288 290 293 297 298 295 290 285 279 272 267 267 268 265
352 355 356 337 328 0 4 354 349 324 324 327 326 323 319 316 313 314 314 313 311 311 310 308 305 300 295 290 289 290 291 295 298 299 295 291 287 285 282 275 268 262 263 263
38 48 336 332 315 341 3 348 342 337 330 326 323 321 319 317 316 316 315 313 313 313 312 311 309 306 304 306 309 305 304 305 302 297 291 287 284 279 273 269 266 262 255 254
101 52 316 315 315 350 348 344 338 333 327 324 323 321 320 318 317 316 317 317 317 318 319 320 320 320 320 322 318 311 307 303 296 290 286 282 279 275 268 260 255 253 247 242
339 334 326 311 341 339 334 335 332 328 328 325 324 323 321 319 319 320 321 322 323 324 327 329 328 324 321 318 311 306 302 296 290 286 282 278 272 268 264 256 248 244 239 229
62 26 343 322 333 322 322 330 330 330 328 329 327 325 324 325 325 326 326 327 330 331 332 329 325 319 314 310 305 301 297 292 288 285 280 275 269 263 256 252 251 232 225 219
Height
1480 1482 1481 1476 1471 1471 1469 1467 1464 1454 1445 1450 1458 1458 1453 1452 1455 1457 1458 1458 1458 1460 1463 1465 1467 1467 1468 1468 1473 1481 1488 1489 1491 1494 1497 1499 1500 1501 1503 1504 1503 1504 1505 1505
1480 1485 1477 1473 1471 1471 1469 1471 1466 1458 1451 1455 1460 1459 1453 1450 1452 1456 1459 1460 1461 1462 1464 1466 1465 1462 1462 1466 1472 1479 1486 1490 1492 1492 1494 1496 1498 1499 1501 1502 1501 1501 1501 1501
1483 1484 1475 1474 1473 1474 1473 1474 1471 1469 1462 1458 1461 1461 1453 1449 1454 1458 1462 1465 1468 1471 1470 1469 1464 1457 1462 1468 1471 1481 1486 1490 1493 1492 1493 1495 1496 1497 1498 1498 1498 1498 1498 1498
1478 1474 1474 1476 1475 1474 1477 1469 1469 1468 1471 1470 1462 1473 1455 1452 1458 1466 1471 1474 1477 1475 1473 1470 1466 1463 1471 1475 1478 1484 1487 1490 1492 1492 1493 1494 1494 1495 1496 1496 1496 1495 1495 1495
1481 1476 1475 1477 1475 1471 1472 1467 1467 1467 1470 1473 1468 1472 1463 1453 1466 1475 1480 1482 1483 1481 1478 1479 1479 1482 1483 1482 1483 1484 1487 1488 1489 1489 1490 1491 1491 1492 1493 1493 1493 1492 1492 1492
1478 1473 1472 1472 1470 1467 1466 1467 1465 1466 1478 1500 1497 1492 1474 1466 1472 1480 1484 1486 1486 1485 1484 1486 1489 1489 1487 1485 1484 1485 1486 1485 1485 1485 1486 1488 1488 1488 1488 1489 1490 1489 1489 1488
1488 1476 1471 1469 1471 1468 1470 1476 1485 1490 1505 1512 1498 1495 1485 1480 1481 1485 1488 1489 1489 1489 1489 1490 1491 1491 1489 1487 1486 1486 1484 1483 1482 1481 1482 1483 1483 1484 1484 1485 1486 1486 1486 1486
1506 1497 1475 1468 1472 1476 1473 1475 1490 1497 1492 1483 1485 1488 1493 1488 1491 1493 1493 1493 1493 1493 1493 1492 1493 1492 1491 1490 1489 1487 1484 1482 1481 1481 1480 1480 1479 1479 1479 1479 1480 1480 1481 1482
1491 1488 1470 1466 1466 1470 1475 1475 1470 1478 1475 1476 1474 1489 1495 1492 1495 1495 1496 1496 1496 1496 1495 1494 1493 1492 1492 1491 1489 1487 1484 1483 1482 1481 1480 1479 1478 1477 1476 1475 1474 1474 1475 1476
1479 1486 1473 1466 1464 1464 1468 1470 1474 1482 1491 1491 1476 1487 1497 1499 1499 1498 1498 1499 1499 1498 1496 1494 1493 1491 1490 1489 1487 1485 1483 1482 1480 1478 1477 1476 1475 1474 1473 1472 1470 1469 1468 1469
1476 1484 1479 1470 1473 1474 1472 1473 1474 1478 1482 1494 1496 1498 1495 1499 1500 1500 1501 1502 1501 1500 1497 1495 1493 1491 1489 1487 1485 1483 1481 1479 1477 1475 1473 1471 1470 1468 1467 1467 1466 1465 1464 1463
1481 1483 1487 1480 1472 1471 1471 1474 1477 1491 1492 1488 1492 1506 1501 1502 1504 1504 1504 1503 1502 1500 1497 1494 1491 1489 1486 1484 1482 1479 1477 1476 1473 1471 1469 1467 1465 1463 1461 1460 1458 1458 1457 1457
1490 1495 1500 1489 1484 1478 1475 1471 1473 1479 1486 1491 1500 1511 1502 1503 1503 1503 1503 1503 1501 1498 1495 1492 1488 1485 1483 1480 1478 1475 1473 1471 1469 1466 1464 1461 1459 1457 1455 1453 1451 1450 1449 1449
1491 1494 1499 1503 1490 1477 1476 1475 1476 1484 1493 1497 1495 1500 1497 1498 1501 1502 1503 1501 1498 1495 1491 1487 1484 1481 1479 1476 1474 1471 1468 1466 1463 1460 1458 1456 1453 1451 1449 1447 1445 1443 1441 1440
1489 1492 1489 1484 1476 1474 1478 1482 1485 1490 1496 1500 1497 1496 1492 1497 1501 1501 1499 1497 1494 1491 1487 1483 1480 1478 1476 1473 1470 1467 1464 1461 1458 1455 1452 1450 1448 1445 1443 1441 1439 1437 1436 1434
1490 1493 1492 1488 1478 1477 1484 1491 1493 1495 1497 1499 1499 1497 1494 1497 1498 1497 1496 1493 1490 1485 1482 1480 1478 1475 1471 1468 1465 1461 1458 1456 1453 1449 1446 1443 1441 1439 1437 1435 1433 1431 1430 1429
1494 1500 1500 1495 1479 1479 1496 1503 1503 1504 1503 1502 1501 1497 1494 1495 1497 1495 1492 1489 1484 1482 1480 1476 1473 1469 1466 1462 1458 1454 1451 1448 1445 1442 1439 1437 1434 1431 1430 1428 1427 1425 1424 1423
1500 1502 1500 1491 1487 1502 1511 1503 1504 1505 1502 1500 1499 1501 1500 1499 1496 1493 1490 1484 1481 1479 1475 1471 1467 1463 1459 1455 1451 1447 1444 1440 1437 1434 1431 1429 1427 1424 1422 1420 1419 1418 1418 1417
1496 1500 1500 1496 1499 1498 1504 1505 1506 1507 1503 1504 1504 1502 1499 1496 1492 1488 1486 1483 1479 1475 1470 1465 1460 1455 1451 1447 1443 1439 1435 1432 1429 1426 1423 1420 1418 1416 1414 1412 1411 1411 1411 1410
1494 1495 1497 1502 1508 1508 1513 1507 1507 1505 1498 1502 1502 1500 1497 1493 1486 1482 1481 1478 1473 1468 1463 1458 1452 1447 1442 1438 1434 1430 1426 1423 1420 1417 1414 1411 1409 1406 1404 1403 1402 1402 1402 1403
1504 1499 1502 1507 1509 1504 1511 1508 1508 1512 1510 1505 1503 1499 1496 1492 1488 1481 1475 1471 1466 1460 1455 1449 1444 1439 1434 1429 1425 1419 1416 1413 1409 1406 1403 1401 1398 1396 1394 1393 1393 1393 1394 1395
1508 1509 1512 1512 1514 1515 1510 1510 1514 1515 1509 1505 1502 1498 1493 1488 1482 1476 1470 1464 1458 1452 1446 1441 1435 1429 1424 1420 1415 1409 1405 1402 1398 1395 1391 1389 1386 1385 1384 1383 1383 1384 1385 1386
1507 1517 1518 1517 1519 1514 1513 1514 1514 1512 1508 1504 1500 1494 1489 1483 1476 1470 1464 1457 1451 1445 1438 1433 1426 1419 1414 1410 1405 1398 1394 1390 1386 1382 1378 1376 1374 1373 1373 1373 1373 1374 1376 1377
1512 1515 1515 1516 1512 1513 1514 1514 1513 1510 1507 1502 1497 1491 1485 1479 1471 1464 1457 1451 1444 1437 1431 1424 1417 1410 1404 1399 1394 1388 1382 1377 1372 1368 1365 1363 1362 1361 1362 1362 1364 1365 1367 1369
1512 1511 1514 1514 1513 1514 1513 1514 1511 1507 1503 1498 1493 1489 1482 1475 1467 1460 1452 1445 1439 1432 1425 1418 1410 1402 1394 1387 1380 1375 1369 1364 1359 1356 1353 1352 1351 1350 1351 1352 1354 1356 1358 1362
1510 1514 1518 1519 1518 1517 1514 1511 1508 1504 1499 1494 1489 1483 1478 1471 1463 1456 1449 1442 1434 1426 1419 1410 1402 1393 1384 1376 1368 1362 1357 1352 1348 1345 1343 1342 1341 1341 1342 1344 1346 1348 1351 1355